{"data":{"norad_id":66209,"intl_designator":"2025-244D","name":"STARLINK-35750","alt_names":[],"object_type":"PAYLOAD","status":"ACTIVE","operator":null,"country":"US","launch_date":"2025-10-28","launch_site_code":"AFWTR","launch_vehicle":null,"mission":null,"orbit_class":"UNKNOWN","rcs_meters":null,"size_class":null,"mass_kg":null,"dimensions":null,"purposes":["comms"],"wikipedia_slug":null,"has_3d_model":false,"image_url":null,"decayed_at":null,"tle_current":{"epoch":"2026-05-24T23:30:57.622176Z","epoch_age_seconds":70703,"freshness":"FRESH","line1":"1 66209U 25244D   26144.97983359  .00013587  00000+0  46991-3 0  9995","line2":"2 66209  53.1587 235.2868 0000888  80.3977 279.7124 15.30208588 33341","mean_motion":15.30208588,"eccentricity":8.88e-5,"inclination_deg":53.1587,"raan_deg":235.2868,"arg_perigee_deg":80.3977,"mean_anomaly_deg":279.7124,"bstar":0.00046991,"rev_number":3334,"period_min":94.104817558376,"perigee_km":474.5808519325,"apogee_km":475.79800270599,"semimajor_km":6853.3264273192,"source":"CELESTRAK","updated_at":"2026-05-25T13:38:21.126774Z"}}}